Lid_Strength_Index
3 2 2 2 2 3 4 4 8 3 5 9 10 13 12 11 11 9 10 11 13 14 14 15 16 15 14 12 12 15 15 15 18 16 14 13 14 14 15 19 20 20 22 21
3 3 2 2 2 3 3 5 5 2 5 12 12 12 12 11 12 11 12 12 12 12 14 16 14 14 12 12 13 14 14 16 19 19 17 15 17 15 14 15 17 20 21 19
3 3 3 3 3 3 4 5 10 6 6 9 10 12 12 12 10 11 11 12 12 13 14 14 15 14 12 12 12 10 12 15 16 17 16 14 17 15 14 16 20 19 18 18
2 2 2 3 3 3 4 6 8 8 10 10 10 10 11 11 12 11 11 12 12 13 16 15 15 13 14 13 11 14 15 18 16 15 14 14 15 15 15 17 16 18 16 18
2 2 2 2 2 2 4 7 8 8 9 9 10 11 11 11 11 11 12 13 11 12 14 13 14 13 14 14 14 15 14 18 17 17 15 15 17 15 15 15 15 16 15 16
2 2 2 2 2 2 5 6 6 7 9 10 11 11 10 10 10 10 10 11 12 13 12 11 12 11 12 13 14 15 16 17 18 20 17 17 19 16 15 15 14 14 17 13
2 2 2 2 2 3 4 6 7 8 11 11 11 10 10 10 10 11 10 11 12 12 11 11 13 13 13 13 13 12 15 16 17 20 18 23 16 13 13 14 13 13 13 12
3 2 2 2 2 2 4 5 7 8 11 10 11 11 11 11 11 12 11 10 11 11 12 14 15 16 16 14 14 14 13 15 18 20 21 17 15 14 15 16 15 13 13 12
3 3 3 3 3 3 4 5 5 7 11 12 10 11 10 12 12 12 11 11 11 12 13 14 18 19 16 18 18 15 15 15 18 19 21 22 17 15 13 13 19 12 12 12
4 4 4 4 3 3 4 4 5 7 11 10 10 12 11 10 12 13 12 13 13 12 15 17 17 18 15 18 19 20 19 19 20 19 20 18 14 13 13 19 17 12 11 12
5 5 5 5 5 5 5 6 5 7 10 10 9 9 11 11 11 14 13 13 14 15 16 16 16 17 15 16 16 17 18 19 20 19 20 22 13 14 16 13 12 12 12 11
6 6 6 6 6 6 6 7 6 6 9 10 8 8 7 8 9 11 12 12 13 12 15 15 15 16 15 15 18 14 17 15 16 16 17 12 12 11 10 10 11 12 11 10
6 6 6 6 6 6 7 8 7 8 10 10 10 10 8 7 8 7 12 11 10 11 10 12 13 16 14 17 17 15 13 12 14 14 13 12 10 9 9 10 10 10 10 10
6 6 6 7 6 6 6 8 7 9 10 13 11 8 9 8 8 8 7 8 8 10 10 12 13 14 12 15 14 14 12 12 13 13 12 11 10 12 12 11 11 11 11 10
6 6 6 6 6 6 6 6 6 7 9 13 12 9 8 7 7 8 8 8 9 10 11 12 13 11 12 12 12 14 13 13 14 14 12 11 12 12 12 12 12 12 12 12
6 6 6 6 6 6 7 10 7 6 7 11 15 9 9 10 9 9 9 9 9 9 10 11 10 9 10 13 16 15 14 13 13 14 13 12 11 11 11 11 10 10 10 10
6 6 6 6 6 7 10 10 8 5 6 10 14 13 10 10 9 9 10 8 9 9 10 11 11 10 9 12 18 15 14 13 12 12 11 12 12 12 10 10 10 9 9 9
4 4 5 5 5 6 8 6 5 5 8 9 14 14 13 11 11 12 9 10 10 10 10 10 11 10 9 14 14 13 12 12 12 12 11 11 11 10 10 9 9 9 10 9
4 4 4 5 6 8 7 5 5 5 8 12 13 15 16 10 11 11 11 10 13 10 12 11 11 12 15 14 12 11 10 10 11 11 11 10 10 10 9 9 9 9 9 9
2 5 7 10 7 4 5 6 9 9 9 10 12 11 14 12 12 13 13 11 14 17 12 10 13 13 12 11 9 9 10 10 10 12 11 9 9 8 8 8 7 8 8 7
4 6 7 4 2 5 7 11 11 10 12 9 10 10 12 7 12 11 10 12 12 17 13 15 14 15 12 9 8 8 8 7 7 7 6 6 7 7 7 7 6 6 6 6
4 4 3 4 6 9 12 12 10 11 12 10 11 11 9 8 7 10 11 14 15 19 12 16 18 13 11 10 10 9 6 6 6 5 6 5 5 5 5 5 5 5 5 5
3 6 11 11 12 18 18 18 14 12 10 10 9 12 10 9 8 10 11 14 18 12 19 18 16 11 10 10 9 8 7 7 8 8 7 6 5 5 5 5 5 5 6 5
10 14 19 17 18 14 12 12 12 9 9 10 10 11 11 9 11 11 14 14 15 21 23 20 14 10 8 8 8 8 8 7 7 7 6 6 6 6 5 5 5 6 6 6
12 14 19 18 11 10 8 9 10 9 9 10 12 11 9 11 11 10 12 19 21 17 17 12 10 9 8 8 8 8 8 8 9 8 8 8 7 7 7 6 6 6 6 6
11 12 16 11 14 13 12 12 12 9 9 10 9 13 13 16 14 17 19 20 20 15 11 10 11 11 9 8 7 7 7 7 7 7 6 6 7 7 7 6 7 7 7 7
10 12 9 11 12 12 11 11 10 8 10 15 13 19 19 16 19 19 16 18 14 12 10 10 9 10 9 9 8 8 7 7 7 6 6 7 6 7 7 8 7 7 6 7